Flag for Norway Weather past 2 weeks in Svolvær, Norway

Now
54 °F

Sprinkles. Broken clouds.


Feels Like: 50 °F
Forecast: 50 / 54 °F
Wind: 13 mph from North

Location: Svolvaer / Helle

Current Time: Jul 30, 2015 at 10:19:16 AM

Latest Report: Jul 30, 2015 at 9:50 AM


Visibility: N/A

Pressure: 29.45 "Hg

Humidity: 94%

Dew point: 52 °F

Location of SvolværLocation

Historic Weather in Svolvær — Graph

°F

Svolvær temperature yesterday

Maximum temperature yesterday: 64 °F (at 12:50 PM)
Minimum temperature yesterday: 52 °F (at 4:20 AM)
Average temperature yesterday: 60 °F

Past Weeks' High & Low Weather Summary

 TemperatureHumidityPressure
High66 °F (Jul 22, 4:50 PM)100% (Jul 20, 5:50 PM)29.89 "Hg (Jul 20, 5:50 PM)
Low48 °F (Jul 16, 7:50 PM)46% (Jul 22, 5:50 PM)29.36 "Hg (Jul 27, 12:50 PM)
Average55 °F79%29.67 "Hg
* Reported Jul 15 8:50 AM — Jul 30 8:50 AM, Svolvær, Weather by CustomWeather, © 2015

Note: Actual official high and low records may vary slightly from our data, if they occured in-between our weather recording intervals... More about our weather records

Advertising

Svolvær weather history for previous 24 hours

 ConditionsComfort  
Time TempWeatherWind HumidityBarometerVisibility
8:50 AM
Thu, Jul 30
55 °FSprinkles. Broken clouds.17 mph88%29.45 "HgN/A
7:50 AM55 °FScattered showers. Broken clouds.15 mph88%29.47 "HgN/A
6:50 AM54 °FSprinkles. Broken clouds.15 mph94%29.47 "HgN/A
5:50 AM54 °FScattered showers. Broken clouds.14 mph94%29.50 "HgN/A
4:50 AM54 °FScattered showers. Broken clouds.18 mph88%29.50 "HgN/A
4:20 AM54 °FBroken clouds.20 mph88%29.50 "HgN/A
8:50 PM
Wed, Jul 29
57 °FPartly sunny.18 mph77%29.56 "HgN/A
7:50 PM59 °FPartly sunny.18 mph72%29.56 "HgN/A
6:50 PM63 °FPartly sunny.16 mph64%29.56 "HgN/A
5:50 PM64 °FSunny.15 mph60%29.59 "Hg10 mi
4:50 PM63 °FSunny.17 mph68%29.59 "Hg10 mi
3:50 PM64 °FSunny.16 mph64%29.59 "Hg10 mi
2:50 PM64 °FSunny.16 mph64%29.59 "Hg10 mi
1:50 PM64 °FSunny.13 mph64%29.62 "Hg10 mi
12:50 PM64 °FSunny.13 mph60%29.62 "Hg10 mi
11:50 AM63 °FSunny.12 mph68%29.62 "Hg10 mi
10:50 AM61 °FSunny.10 mph72%29.62 "Hg10 mi
Weather by CustomWeather, © 2015

See weather overviewHow to use our weather pages